Location: Caltech
(34.1382°N, 118.1253°W)
Time: 00:06:35
(UTC-07:00)

Cosmos 1975 - Visible Passes

Search period start: 28 August 2014 00:00
Search period end: 07 September 2014 00:00
Orbit: 554 x 576 km, 82.5° (Epoch: 25 August)

Date Brightness Start Highest point End Pass type
(mag) Time Alt. Az. Time Alt. Az. Time Alt. Az.
28 Aug 4.2 19:56:06 10° SSW 20:00:04 45° W 20:04:03 10° N visible
29 Aug 4.8 19:56:40 10° SSW 20:00:29 36° W 20:04:18 10° NNW visible
30 Aug 5.3 19:57:18 10° SW 20:00:53 28° WNW 20:04:29 10° NNW visible
31 Aug 5.8 19:58:01 10° SW 20:01:18 23° WNW 20:04:36 10° NNW visible
01 Sep 6.2 19:58:50 10° WSW 20:01:44 18° WNW 20:04:38 10° NNW visible
02 Sep 6.4 19:59:49 10° WSW 20:02:09 15° WNW 20:04:30 10° NW visible
03 Sep 6.8 20:01:06 10° W 20:02:36 12° WNW 20:04:05 10° NW visible
